Regional Weather Roundup
Issued by NWS

Home | Current Version | Previous Version | Graphics & Text | Print | Product List | Glossary On
Versions: 1 2 3 4 5 6 7 8 9 10 11 12 13 14 15 16 17 18 19 20 21 22 23 24 25 26 27 28 29 30 31 32 33 34 35 36 37 38 39 40 41 42 43 44 45 46 47 48 49 50
000
ASUS45 KBOI 280910
RWRID

IDAHO REGIONAL WEATHER ROUNDUP
NATIONAL WEATHER SERVICE BOISE ID
300 AM MDT FRI JUL 28 2017

NOTE: "FAIR" INDICATES FEW OR NO CLOUDS BELOW 12000 FEET
WITH NO SIGNIFICANT WEATHER AND/OR OBSTRUCTIONS TO VISIBILITY

IDZ012-014-281000-
SOUTHWEST IDAHO


CITY           SKY/WX    TMP DP  RH WIND       PRES   REMARKS
BOISE          CLEAR     73  43  33 E10       29.99S
CALDWELL       CLEAR     63  55  75 N5        29.97S
MOUNTAIN HOME  CLEAR     71  50  48 E12       30.02R
$$

IDZ016-017-281000-
SOUTHCENTRAL IDAHO


CITY           SKY/WX    TMP DP  RH WIND       PRES   REMARKS
BURLEY         CLEAR     61  53  75 NE5       30.10S
JEROME         CLEAR     66  51  58 NE10      30.10S
TWIN FALLS     CLEAR     64  48  56 S10       30.09S
$$

IDZ019>023-281000-
SOUTHEAST IDAHO


CITY           SKY/WX    TMP DP  RH WIND       PRES   REMARKS
IDAHO FALLS    CLEAR     53  52  96 CALM      30.19R
POCATELLO      CLEAR     52  48  86 CALM      30.16R
REXBURG        CLEAR     52  51  97 CALM      30.19S
$$

IDZ006-010-011-018-031-032-281000-
CENTRAL IDAHO MOUNTAINS


CITY           SKY/WX    TMP DP  RH WIND       PRES   REMARKS
MCCALL         CLEAR     56  46  69 CALM      30.15S
HAILEY         CLEAR     55  50  82 NW8       30.24R
STANLEY          N/A     46  43  89 S3        30.30R
SALMON         NOT AVBL
CHALLIS        CLEAR     52  50  93 CALM      30.22R
$$

IDZ002-004-006-007-026-281000-
NORTHERN IDAHO


CITY           SKY/WX    TMP DP  RH WIND       PRES   REMARKS
LEWISTON       CLEAR     71  40  32 CALM      29.96R
LOWELL           N/A     64  56  75 CALM      30.01R
COEUR D`ALENE  CLEAR     62  47  57 CALM      30.01R
MULLAN PASS    CLEAR     59  30  33 VRB5      30.20S
$$



USA.gov is the U.S. government's official web portal to all federal, state and local government web resources and services.